TimeEST,TemperatureF,Dew PointF,Humidity,Sea Level PressureIn,VisibilityMPH,Wind Direction,Wind SpeedMPH,Gust SpeedMPH,PrecipitationIn,Events,Conditions,WindDirDegrees,DateUTC
12:15 AM,41.0,21.2,45,30.30,10.0,Calm,Calm,-,N/A,,Clear,0,2012-11-30 05:15:00
12:35 AM,39.2,21.2,49,30.30,-9999.0,Calm,Calm,-,N/A,,Unknown,0,2012-11-30 05:35:00
12:55 AM,39.2,21.2,49,30.30,-9999.0,Calm,Calm,-,N/A,,Unknown,0,2012-11-30 05:55:00
1:15 AM,39.2,21.2,49,30.30,-9999.0,WSW,3.5,-,N/A,,Unknown,240,2012-11-30 06:15:00
1:35 AM,39.2,21.2,49,30.30,-9999.0,South,3.5,-,N/A,,Unknown,180,2012-11-30 06:35:00
1:55 AM,39.2,21.2,49,30.30,-9999.0,Calm,Calm,-,N/A,,Unknown,0,2012-11-30 06:55:00
2:15 AM,39.2,21.2,49,30.30,-9999.0,South,4.6,-,N/A,,Unknown,170,2012-11-30 07:15:00
2:35 AM,39.2,21.2,49,30.31,-9999.0,South,4.6,-,N/A,,Unknown,190,2012-11-30 07:35:00
2:55 AM,41.0,21.2,45,30.31,-9999.0,Calm,Calm,-,N/A,,Unknown,0,2012-11-30 07:55:00
3:15 AM,41.0,23.0,49,30.30,-9999.0,Calm,Calm,-,N/A,,Unknown,0,2012-11-30 08:15:00
3:35 AM,39.2,21.2,49,30.30,-9999.0,South,3.5,-,N/A,,Unknown,170,2012-11-30 08:35:00
3:55 AM,41.0,24.8,53,30.30,-9999.0,Calm,Calm,-,N/A,,Unknown,0,2012-11-30 08:55:00
4:15 AM,41.0,24.8,53,30.29,10.0,South,3.5,-,N/A,,Clear,190,2012-11-30 09:15:00
4:55 AM,39.2,24.8,56,30.29,10.0,Variable,4.6,-,N/A,,Clear,0,2012-11-30 09:55:00
5:15 AM,39.2,24.8,56,30.29,-9999.0,Calm,Calm,-,N/A,,Unknown,0,2012-11-30 10:15:00
5:35 AM,41.0,24.8,53,30.29,10.0,Variable,3.5,-,N/A,,Clear,0,2012-11-30 10:35:00
5:55 AM,39.2,24.8,56,30.29,10.0,SSE,3.5,-,N/A,,Clear,160,2012-11-30 10:55:00
6:15 AM,39.2,26.6,61,30.30,10.0,South,4.6,-,N/A,,Clear,180,2012-11-30 11:15:00
6:35 AM,39.2,26.6,61,30.30,10.0,Variable,3.5,-,N/A,,Clear,0,2012-11-30 11:35:00
6:55 AM,39.2,24.8,56,30.31,10.0,Calm,Calm,-,N/A,,Clear,0,2012-11-30 11:55:00
7:15 AM,39.2,26.6,61,30.31,10.0,South,3.5,-,N/A,,Clear,170,2012-11-30 12:15:00
7:35 AM,39.2,26.6,61,30.31,10.0,South,3.5,-,N/A,,Clear,180,2012-11-30 12:35:00
7:55 AM,41.0,26.6,57,30.32,10.0,South,3.5,-,N/A,,Clear,180,2012-11-30 12:55:00
8:15 AM,42.8,26.6,53,30.32,10.0,Calm,Calm,-,N/A,,Clear,0,2012-11-30 13:15:00
8:35 AM,44.6,26.6,49,30.32,-9999.0,SW,3.5,-,N/A,,Unknown,230,2012-11-30 13:35:00
8:55 AM,44.6,26.6,49,30.32,10.0,Calm,Calm,-,N/A,,Clear,0,2012-11-30 13:55:00
9:15 AM,44.6,26.6,49,30.33,10.0,Calm,Calm,-,N/A,,Clear,0,2012-11-30 14:15:00
9:35 AM,44.6,26.6,49,30.33,10.0,Variable,3.5,-,N/A,,Clear,0,2012-11-30 14:35:00
9:55 AM,46.4,28.4,50,30.34,10.0,Calm,Calm,-,N/A,,Clear,0,2012-11-30 14:55:00
10:15 AM,48.2,28.4,46,30.34,10.0,SW,8.1,-,N/A,,Clear,230,2012-11-30 15:15:00
10:35 AM,46.4,28.4,50,30.34,10.0,Variable,5.8,-,N/A,,Clear,0,2012-11-30 15:35:00
10:55 AM,50.0,30.2,47,30.33,10.0,WSW,9.2,-,N/A,,Clear,240,2012-11-30 15:55:00
11:15 AM,50.0,28.4,43,30.33,10.0,Variable,4.6,-,N/A,,Clear,0,2012-11-30 16:15:00
11:35 AM,51.8,28.4,41,30.32,10.0,WSW,4.6,-,N/A,,Clear,240,2012-11-30 16:35:00
11:55 AM,53.6,30.2,41,30.31,10.0,Variable,5.8,-,N/A,,Clear,0,2012-11-30 16:55:00
12:15 PM,53.6,33.8,47,30.30,10.0,West,6.9,-,N/A,,Clear,260,2012-11-30 17:15:00
12:35 PM,53.6,33.8,47,30.29,10.0,West,9.2,-,N/A,,Clear,260,2012-11-30 17:35:00
12:55 PM,53.6,35.6,51,30.29,10.0,Variable,5.8,-,N/A,,Clear,0,2012-11-30 17:55:00
1:15 PM,53.6,35.6,51,30.28,10.0,WSW,5.8,-,N/A,,Clear,250,2012-11-30 18:15:00
1:35 PM,53.6,33.8,47,30.27,10.0,SW,5.8,-,N/A,,Clear,220,2012-11-30 18:35:00
1:55 PM,53.6,33.8,47,30.26,10.0,Variable,5.8,-,N/A,,Clear,0,2012-11-30 18:55:00
2:15 PM,55.4,33.8,44,30.26,10.0,Variable,5.8,-,N/A,,Clear,0,2012-11-30 19:15:00
2:35 PM,55.4,33.8,44,30.25,10.0,Variable,3.5,-,N/A,,Clear,0,2012-11-30 19:35:00
2:55 PM,55.4,33.8,44,30.24,10.0,Variable,5.8,-,N/A,,Clear,0,2012-11-30 19:55:00
3:15 PM,55.4,33.8,44,30.24,10.0,Variable,4.6,-,N/A,,Clear,0,2012-11-30 20:15:00
3:35 PM,53.6,33.8,47,30.24,10.0,Variable,3.5,-,N/A,,Clear,0,2012-11-30 20:35:00
3:55 PM,53.6,33.8,47,30.24,10.0,SW,4.6,-,N/A,,Clear,220,2012-11-30 20:55:00
4:15 PM,53.6,33.8,47,30.24,10.0,Variable,4.6,-,N/A,,Clear,0,2012-11-30 21:15:00
4:35 PM,53.6,32.0,44,30.24,10.0,WSW,3.5,-,N/A,,Clear,240,2012-11-30 21:35:00
4:55 PM,51.8,30.2,44,30.23,10.0,Calm,Calm,-,N/A,,Clear,0,2012-11-30 21:55:00
5:15 PM,50.0,30.2,47,30.23,10.0,WSW,3.5,-,N/A,,Clear,250,2012-11-30 22:15:00
5:35 PM,48.2,30.2,50,30.23,10.0,WSW,4.6,-,N/A,,Clear,250,2012-11-30 22:35:00
5:55 PM,46.4,30.2,53,30.23,10.0,WSW,5.8,-,N/A,,Clear,240,2012-11-30 22:55:00
6:15 PM,46.4,30.2,53,30.23,10.0,Variable,3.5,-,N/A,,Clear,0,2012-11-30 23:15:00
6:35 PM,44.6,32.0,61,30.24,10.0,West,4.6,-,N/A,,Clear,270,2012-11-30 23:35:00
6:55 PM,44.6,32.0,61,30.24,10.0,Calm,Calm,-,N/A,,Clear,0,2012-11-30 23:55:00
7:15 PM,44.6,33.8,66,30.25,10.0,West,6.9,-,N/A,,Clear,280,2012-12-01 00:15:00
7:35 PM,44.6,33.8,66,30.27,10.0,West,5.8,-,N/A,,Clear,260,2012-12-01 00:35:00
7:55 PM,44.6,33.8,66,30.26,10.0,SW,4.6,-,N/A,,Scattered Clouds,230,2012-12-01 00:55:00
8:15 PM,44.6,35.6,71,30.27,10.0,WSW,3.5,-,N/A,,Partly Cloudy,240,2012-12-01 01:15:00
8:35 PM,44.6,33.8,66,30.28,10.0,Variable,4.6,-,N/A,,Partly Cloudy,0,2012-12-01 01:35:00
8:55 PM,42.8,33.8,70,30.27,10.0,South,4.6,-,N/A,,Clear,190,2012-12-01 01:55:00
9:15 PM,42.8,33.8,70,30.28,10.0,Calm,Calm,-,N/A,,Clear,0,2012-12-01 02:15:00
9:35 PM,42.8,33.8,70,30.28,10.0,South,3.5,-,N/A,,Clear,180,2012-12-01 02:35:00
9:55 PM,42.8,33.8,70,30.28,10.0,Calm,Calm,-,N/A,,Clear,0,2012-12-01 02:55:00
10:15 PM,42.8,33.8,70,30.28,10.0,Calm,Calm,-,N/A,,Clear,0,2012-12-01 03:15:00
10:35 PM,44.6,33.8,66,30.28,10.0,South,4.6,-,N/A,,Clear,190,2012-12-01 03:35:00
10:55 PM,44.6,33.8,66,30.28,10.0,Variable,3.5,-,N/A,,Clear,0,2012-12-01 03:55:00
11:55 PM,44.6,37.4,76,30.28,10.0,WSW,3.5,-,N/A,,Clear,240,2012-12-01 04:55:00